Voltar ao catálogo

DELTA 1 DEB

AtivoSSO
NORAD 7169·DEBRIS·🇺🇸 United States

Lançado Nov 6, 1973 de Vandenberg Space Force Base

Loading…

Próximas Passagens (próximas 24 horas)

TLE

AtualizadoSource: Space-Track

Época: Sep 14, 2026, 10:35 UTC

1 07169U 73086EH  26257.44126662  .00000171  00000-0  10722-2 0  9993
2 07169 101.4226 322.3394 0133075 251.5405 121.5039 12.68839369440798

Acompanhe DELTA 1 DEB em tempo real com AllMySat

Download on the App Store